STARLINK-34635, 64761

Orbit data source: Space-Track

STARLINK-34635, 64761 is a payload satellite owned by SpaceX/Seattle (US) in LEO that was launched on Tue, 08 Jul 2025 UTC via an FALCON 9 launch vehicle from the Air Force Eastern Test Range (AFETR). Payload-class satellites include a variety of spacecraft equipped with specific instruments for various scientific and technological missions. These include communications satellites like Starlink; space stations such as the ISS; scientific satellites like the Hubble; Earth observation satellites from companies like Planet Labs, Umbra, and HawkEye 360; GPS; miniature CubeSats for education and research; and military/defense satellites.

Loading next visibility...
Identifier
64761, 2025-147G
Orbit
LEO
Country
Flag of USUS
Related business
Manufacturer
SpaceX/Seattle
Mission
Operational Commercial Communications
Bus & Motor
STARLINK V2MO, Unknown motor
Mass
575 kg wet, ~530 kg dry
Launch date (UTC)
2025-07-08 (11 months ago)
Launch vehicle
FALCON 9
Launch site
Air Force Eastern Test Range (AFETR)
Object type
Payload
Rocket body
Debris
Shape & HBR
Box + 2 Pan, 17.7 m
Radar Cross Section
36.964 m², Large (>1 m²)

Expand to show TLE details & history
Last TLE update: 1 day ago

TLE from 1 day ago
0 STARLINK-34635
1 64761U 25147G   26170.87685287  .00023039  00000-0  69078-3 0  9990
2 64761  53.1594 126.9303 0001681 102.6660 257.4531 15.34406410 54413
Epoch: 2026-06-19T21:02Z
TLE epoch observation values (Epoch: 2026-06-19T21:02:40.087Z)
Latitude
-0.00001°
Longitude
-96.83627°
Altitude
463.835 km
Speed
7.636 km/s
True Right ascension
08h 27m 43s
True Declination
0° 00' 00"
Sunlit
Object was in daylight at epoch
Visualization orbit readout
Latitude
Unknown
Longitude
Unknown
Altitude
Unknown
Speed
Unknown
Apparent Right ascension
Unknown
Apparent Declination
Unknown
Sunlit
N/A
Visualization observer readout
Local Sidereal Time
08:41:40
Azimuth
Unknown
Elevation
Unknown
Doppler factor
Unknown
Orbital elements
Apogee altitude
464.091 km
Perigee altitude
461.791 km
Semi-major axis
6,841.078 km
Eccentricity
0.00017
Inclination
53.1594°
RAAN
126.9303°
Arg. of periapsis
102.666°
True anomaly
257.4343°
Mean anomaly
257.4531°
Eccentric anomaly
257.4437°
Mean motion
3.8358 °/min
Orbital period
93.85 mins
BSTAR
0.00069078
Loading maneuver chart data...
Computing Atmospheric mass density...
Loading historical data...
Loading historical data...
Loading historical data...
Loading historical data...
Loading historical data...
Loading historical data...
Loading historical data...

Documentation

Showing up to 5 results
|